DO2DV-13 Weather Reports


time (UTC)temp
F
wind
direction
speed
knots
gust
knots
rain 1hr
in
rain 24hr
in
rain mn
in
humidity
%
barometer
mb
20260506203105 53 165 0.0 1.7 0.00 0.07 0.07 99 1009.1
20260506202025 53 198 0.9 2.6 0.00 0.07 0.07 99 1009.1
20260506201050 53 222 0.0 1.7 0.00 0.07 0.07 99 1008.9
20260506200153 53 0.0 0.0 0.01 0.07 0.07 99 1008.8
20260506195034 53 121 0.0 1.7 0.04 0.07 0.07 99 1008.8
20260506194058 54 222 0.0 0.9 0.07 0.07 0.07 99 1008.7
20260506193121 54 165 0.9 0.9 0.07 0.07 0.07 99 1008.4
20260506192042 54 88 0.0 0.9 0.07 0.07 0.07 99 1008.3
20260506191105 54 0.0 0.0 0.07 0.07 0.07 98 1008.1
20260506190045 54 242 1.7 4.3 0.06 0.07 0.06 96 1008.1
20260506185110 55 273 3.5 7.8 0.03 0.04 0.03 93 1008.0
20260506184114 57 231 2.6 5.2 0.00 0.02 0.00 86 1007.8
20260506183113 57 211 2.6 4.3 0.00 0.03 0.00 82 1007.6
20260506182118 57 163 0.9 1.7 0.00 0.04 0.00 82 1007.4
20260506181141 57 192 1.7 1.7 0.00 0.06 0.00 81 1007.4
20260506180026 58 180 2.6 4.3 0.00 0.06 0.00 81 1007.3
20260506175050 58 221 0.9 5.2 0.00 0.06 0.00 79 1007.3
20260506174114 59 225 1.7 6.1 0.00 0.06 0.00 78 1007.2
20260506173034 59 258 2.6 6.1 0.00 0.07 0.00 76 1007.2
20260506172057 60 216 1.7 4.3 0.00 0.07 0.00 74 1006.9
20260506171105 60 225 3.5 6.1 0.00 0.08 0.00 73 1007.0
20260506170026 60 225 5.2 9.6 0.00 0.08 0.00 72 1007.0
20260506165110 60 206 2.6 5.2 0.00 0.08 0.00 73 1006.9
20260506164154 60 221 2.6 5.2 0.00 0.08 0.00 73 1006.9
20260506163034 61 227 2.6 5.2 0.00 0.08 0.00 71 1006.9
20260506162057 62 230 3.5 6.1 0.00 0.08 0.00 71 1007.0
20260506161122 62 239 3.5 7.8 0.00 0.08 0.00 70 1007.0
20260506155107 63 272 4.3 8.7 0.00 0.08 0.00 67 1007.0
20260506154026 65 253 3.5 7.0 0.00 0.08 0.00 62 1006.8
20260506153110 64 248 3.5 7.8 0.00 0.08 0.00 65 1006.8
20260506152114 64 224 4.3 8.7 0.00 0.08 0.00 65 1006.8
20260506151033 64 219 4.3 7.8 0.00 0.08 0.00 63 1006.8
20260506150058 65 233 4.3 7.0 0.00 0.08 0.00 61 1006.7
20260506145121 64 217 2.6 6.1 0.00 0.08 0.00 63 1006.6
20260506144042 63 245 2.6 6.1 0.00 0.08 0.00 65 1006.5
20260506143126 63 208 2.6 7.0 0.00 0.08 0.00 63 1006.6
20260506142045 64 223 3.5 7.0 0.00 0.08 0.00 61 1006.6
20260506141050 64 251 2.6 6.1 0.00 0.08 0.00 63 1006.5
20260506140114 64 217 3.5 7.8 0.00 0.08 0.00 63 1006.5
20260506135035 62 262 3.5 7.0 0.00 0.08 0.00 65 1006.4
20260506134058 63 190 2.6 4.3 0.00 0.08 0.00 66 1006.6
20260506133123 63 234 2.6 4.3 0.00 0.08 0.00 65 1006.5
20260506132042 63 232 2.6 4.3 0.00 0.08 0.00 65 1006.6
20260506131146 63 205 3.5 7.8 0.00 0.08 0.00 65 1006.6
20260506130026 63 213 3.5 7.0 0.00 0.08 0.00 67 1006.8
20260506125050 61 212 2.6 5.2 0.00 0.09 0.00 69 1006.8
20260506124134 62 257 2.6 5.2 0.00 0.09 0.00 70 1006.7
20260506123055 61 230 3.5 7.0 0.00 0.09 0.00 71 1006.8
20260506122042 60 248 2.6 4.3 0.00 0.09 0.00 74 1006.9
20260506121106 59 255 3.5 6.1 0.00 0.09 0.00 75 1006.8
20260506120026 60 249 1.7 6.1 0.00 0.09 0.00 75 1007.0
20260506115050 60 258 2.6 6.1 0.00 0.09 0.00 75 1006.9
20260506114114 59 241 3.5 5.2 0.00 0.09 0.00 77 1006.9
20260506113054 60 218 2.6 5.2 0.00 0.09 0.00 74 1007.0
20260506112058 60 214 1.7 4.3 0.00 0.09 0.00 75 1007.2
20260506111122 59 239 2.6 7.0 0.00 0.09 0.00 77 1007.3
20260506110042 60 211 2.6 4.3 0.00 0.09 0.00 75 1007.2
20260506105107 59 204 3.5 7.0 0.00 0.09 0.00 76 1007.3
20260506104026 58 208 2.6 6.1 0.00 0.09 0.00 77 1007.2
20260506103051 58 193 2.6 5.2 0.00 0.09 0.00 78 1007.1
20260506102114 59 210 2.6 5.2 0.00 0.09 0.00 78 1007.2
20260506101035 57 218 2.6 4.3 0.00 0.09 0.00 81 1007.1
20260506100059 59 229 3.5 7.0 0.00 0.09 0.00 80 1007.1
20260506095122 57 236 2.6 6.1 0.00 0.09 0.00 84 1007.2
20260506094043 57 196 1.7 5.2 0.00 0.09 0.00 83 1007.1
20260506093106 56 215 2.6 5.2 0.00 0.09 0.00 85 1007.1
20260506092026 57 165 2.6 6.1 0.00 0.09 0.00 84 1007.3
20260506091131 56 185 2.6 5.2 0.00 0.09 0.00 86 1007.1
20260506090115 56 188 1.7 5.2 0.00 0.09 0.00 86 1007.1
20260506085034 56 211 3.5 8.7 0.00 0.09 0.00 87 1007.0
20260506084059 56 161 2.6 5.2 0.00 0.09 0.00 87 1006.8
20260506083122 56 189 1.7 5.2 0.00 0.09 0.00 87 1006.5
20260506082043 56 196 3.5 7.0 0.00 0.09 0.00 86 1006.6
20260506081107 56 218 2.6 6.1 0.00 0.09 0.00 85 1006.5
20260506073034 53 188 0.9 4.3 0.00 0.09 0.00 94 1006.8
20260506072059 53 226 1.7 2.6 0.00 0.09 0.00 94 1007.0
20260506071123 53 180 1.7 4.3 0.00 0.09 0.00 95 1007.0
20260506062115 52 88 0.0 0.9 0.00 0.09 0.00 99 1006.5
20260506061034 52 191 0.0 2.6 0.00 0.09 0.00 99 1006.6
20260506051050 47 0.0 0.0 0.00 0.09 0.00 99 1006.6
20260506050115 46 0.0 0.0 0.00 0.09 0.00 99 1006.5
20260506045034 46 0.0 0.0 0.00 0.09 0.00 99 1006.4
20260506044118 47 0.0 0.0 0.00 0.09 0.00 99 1006.4
20260506043123 46 0.0 0.0 0.00 0.09 0.00 99 1006.5
20260506042043 46 0.0 0.0 0.00 0.09 0.00 99 1006.5
20260506041106 47 0.0 0.0 0.00 0.09 0.00 99 1006.6
20260506040026 47 0.0 0.0 0.00 0.09 0.00 99 1006.6
20260506035051 47 0.0 0.0 0.00 0.09 0.00 99 1006.7
20260506034115 48 0.0 0.0 0.00 0.09 0.00 99 1006.9
20260506033034 48 0.0 0.0 0.00 0.09 0.00 99 1006.9
20260506032058 48 0.0 0.0 0.00 0.09 0.00 99 1007.0
20260506031143 49 0.0 0.0 0.00 0.09 0.00 99 1006.9
20260506025106 49 0.0 0.0 0.00 0.09 0.00 99 1007.2
20260506024047 49 0.0 0.0 0.00 0.09 0.00 99 1007.1
20260506023051 48 0.0 0.0 0.00 0.09 0.00 99 1007.1
20260506022115 48 94 0.0 0.9 0.00 0.09 0.00 99 1007.2
20260506021035 48 0.0 0.0 0.00 0.09 0.00 99 1007.2
20260506020059 48 0.0 0.0 0.00 0.09 0.00 99 1007.0
20260506015222 49 0.0 0.0 0.00 0.09 0.00 99 1007.1
20260506014043 49 0.0 0.0 0.00 0.09 0.00 99 1007.0
20260506013106 50 0.0 0.0 0.00 0.09 0.00 99 1007.2
20260506012047 50 0.0 0.0 0.00 0.09 0.00 99 1007.4
20260506011051 50 0.0 0.0 0.00 0.09 0.00 99 1007.4
20260506010115 50 0.0 0.0 0.00 0.09 0.00 99 1007.5
20260506005055 51 0.0 0.0 0.00 0.09 0.00 99 1007.5
20260506004058 51 0.0 0.0 0.00 0.09 0.00 99 1007.4
20260506003123 51 0.0 0.0 0.00 0.09 0.00 99 1007.6
20260506002042 52 0.0 0.0 0.00 0.09 0.00 99 1007.7
20260506001127 52 0.0 0.0 0.00 0.09 0.00 99 1007.8
20260506000027 53 0.0 0.0 0.00 0.09 0.00 99 1007.8
20260505235051 53 23 0.0 1.7 0.00 0.09 0.00 99 1007.8
20260505234115 53 0.0 0.0 0.00 0.09 0.00 99 1007.8
20260505233035 53 0.0 0.0 0.00 0.09 0.00 99 1007.9
20260505232059 54 3 0.9 1.7 0.00 0.09 0.00 99 1007.9
20260505231123 53 0.0 0.0 0.00 0.09 0.00 99 1008.2
20260505225108 54 27 0.0 0.9 0.00 0.09 0.00 99 1008.2
20260505224047 54 0.0 0.0 0.00 0.09 0.00 99 1008.1
20260505223050 54 0.0 0.0 0.00 0.09 0.00 99 1008.1
20260505222115 54 0.0 0.0 0.00 0.09 0.00 99 1008.1
20260505221035 54 0.0 0.0 0.00 0.09 0.00 99 1008.0
20260505220059 54 0.0 0.0 0.00 0.09 0.00 99 1008.1
20260505215123 54 3 0.9 1.7 0.00 0.09 0.09 99 1008.2
20260505214043 54 0.0 0.0 0.00 0.09 0.09 99 1008.1
20260505213107 54 0.0 0.0 0.00 0.09 0.09 99 1008.0
20260505212027 55 0.0 0.0 0.00 0.09 0.09 99 1008.1
20260505211051 55 351 0.0 0.9 0.00 0.09 0.09 99 1008.0
20260505210135 55 6 0.9 1.7 0.00 0.09 0.09 99 1008.2
20260505205036 55 0.0 0.0 0.00 0.09 0.09 99 1008.1
20260505204059 55 204 0.9 2.6 0.00 0.09 0.09 99 1008.2